Location: Bremen
(53.0796°N, 8.8241°E)
Time: 14:34:40
(UTC+02:00)

ISS - Visible Passes

Search period start: 24 July 2017 00:00
Search period end: 03 August 2017 00:00
Orbit: 400 x 408 km, 51.6° (Epoch: 24 July)

Date Brightness Start Highest point End Pass type
(mag) Time Alt. Az. Time Alt. Az. Time Alt. Az.
24 Jul -4.0 00:59:47 10° WSW 01:03:01 65° S 01:06:15 10° E visible
24 Jul -3.8 02:36:09 10° W 02:39:22 56° SSW 02:42:35 10° ESE visible
24 Jul -2.5 04:12:55 10° W 04:15:26 21° SSW 04:17:57 10° SSE visible
24 Jul -2.5 22:32:12 10° SSW 22:34:42 21° SSE 22:37:14 10° E visible
25 Jul -3.8 00:07:34 10° WSW 00:10:46 56° SSE 00:13:58 10° E visible
25 Jul -4.0 01:43:52 10° W 01:47:07 65° S 01:50:21 10° ESE visible
25 Jul -3.0 03:20:25 10° W 03:23:18 29° SSW 03:26:11 10° SE visible
25 Jul -3.6 23:15:24 10° SW 23:18:32 44° SSE 23:21:39 10° E visible
26 Jul -4.0 00:51:35 10° W 00:54:50 69° S 00:56:44 22° ESE visible
26 Jul -2.1 02:28:01 10° W 02:29:16 20° W 02:29:16 20° W visible
26 Jul -3.1 22:23:21 10° SW 22:26:18 33° SSE 22:29:16 10° E visible
26 Jul -4.0 23:59:17 10° WSW 00:02:31 67° S 00:05:20 13° E visible
27 Jul -3.0 01:35:41 10° W 01:37:56 37° WSW 01:37:56 37° WSW visible
27 Jul -3.8 23:07:00 10° WSW 23:10:13 59° S 23:13:27 10° E visible
28 Jul -3.9 00:43:21 10° W 00:46:35 62° S 00:46:57 56° SSE visible
28 Jul -3.6 22:14:47 10° WSW 22:17:56 48° SSE 22:21:06 10° E visible
28 Jul -4.0 23:51:01 10° W 23:54:16 68° S 23:56:05 23° ESE visible
29 Jul -1.9 01:27:28 10° W 01:28:42 19° W 01:28:42 19° W visible
29 Jul -3.9 22:58:40 10° W 23:01:55 69° S 23:05:10 10° E visible
30 Jul -3.4 00:35:05 10° W 00:37:54 45° SW 00:37:54 45° SW visible
30 Jul -3.8 22:06:21 10° WSW 22:09:34 63° S 22:12:48 10° E visible
30 Jul -3.8 23:42:42 10° W 23:45:56 59° S 23:47:07 33° SE visible
31 Jul -1.3 01:19:21 10° W 01:19:44 12° W 01:19:44 12° W visible
31 Jul -3.9 22:50:20 10° W 22:53:34 67° S 22:56:21 13° ESE visible
01 Aug -2.6 00:26:49 10° W 00:28:59 28° SW 00:28:59 28° SW visible
01 Aug -3.8 21:57:57 10° W 22:01:12 69° S 22:04:27 10° E visible
01 Aug -3.4 23:34:22 10° W 23:37:30 43° SSW 23:38:14 36° SSE visible
02 Aug -3.7 22:41:57 10° W 22:45:09 55° SSW 22:47:30 17° ESE visible
